Location: Le Rouget
(44.8538°N, 2.2328°E)
Time: 07:45:05
(UTC+00:00)

ISS - Pass Details

Date: 15 May 2026
Orbit: 413 x 423 km, 51.6° (Epoch: 5 June)

Event Time Altitude Azimuth Distance (km) Brightness Sun altitude
Rises 21:20:40 0° 293° (WNW) 2,351 1.1 -17.9°
Reaches altitude 10° 21:23:00 10° 307° (NW) 1,488 0.2 -18.1°
Maximum altitude 21:25:51 25° 6° (N) 873 -1.6 -18.4°
Enters shadow 21:28:30 11° 63° (ENE) 1,424 -1.2 -18.7°
